When you browse on this site, cookies collect data to enhance your experience and personalize the content and advertising you see.
Visit our Privacy Policy to learn more. By continuing to use the site, you agree to this use of cookies and data.
  • In Hungary
  • List of Countries
  • For 7 days
  • Water Temperature
  • Satellite Maps
  • Weather Map
  • News
  • Weather Widgets
  • user-avatar
    Login

    Hourly Weather Bocsa

    Today, 24 March, Sunday

    Time Temperature Precipitation Wind Pressure Humidity
    00:00 +9°C° 0 mm 1 mps 748 mmHg 65%
    01:00 +8°C° 0 mm 1 mps 748 mmHg 63%
    02:00 +8°C° 0 mm 1 mps 748 mmHg 65%
    03:00 +8°C° 0 mm 1 mps 748 mmHg 66%
    04:00 +8°C° 0 mm 1 mps 748 mmHg 68%
    05:00 +8°C° 0 mm 1 mps 748 mmHg 67%
    06:00 +9°C° 0 mm 1 mps 748 mmHg 66%
    07:00 +9°C° 0 mm 1 mps 748 mmHg 65%
    08:00 +11°C° 0 mm 1 mps 748 mmHg 59%
    09:00 +13°C° 0 mm 2 mps 748 mmHg 52%
    10:00 +15°C° 0 mm 2 mps 748 mmHg 46%
    11:00 +16°C° 0 mm 2 mps 747 mmHg 43%
    12:00 +17°C° 0 mm 2 mps 747 mmHg 39%
    13:00 +19°C° 0 mm 1 mps 746 mmHg 36%
    14:00 +19°C° 0 mm 1 mps 746 mmHg 36%
    15:00 +19°C° 0 mm 1 mps 746 mmHg 36%
    16:00 +19°C° 0 mm 1 mps 745 mmHg 36%
    17:00 +16°C° 0 mm 1 mps 745 mmHg 41%
    18:00 +14°C° 0 mm 1 mps 744 mmHg 45%
    19:00 +11°C° 0 mm 0 mps 744 mmHg 50%
    20:00 +12°C° 0 mm 1 mps 744 mmHg 52%
    21:00 +11°C° 0 mm 1 mps 744 mmHg 55%
    22:00 +10°C° 0 mm 2 mps 744 mmHg 57%
    23:00 +11°C° 0 mm 1 mps 743 mmHg 57%

    Tomorrow, 25 March, Monday

    Time Temperature Precipitation Wind Pressure Humidity
    00:00 +10°C° 0 mm 1 mps 743 mmHg 57%
    01:00 +10°C° 0 mm 1 mps 743 mmHg 58%
    02:00 +10°C° 0 mm 1 mps 743 mmHg 56%
    03:00 +9°C° 0 mm 1 mps 742 mmHg 55%
    04:00 +9°C° 0 mm 1 mps 742 mmHg 54%
    05:00 +10°C° 0 mm 1 mps 741 mmHg 53%
    06:00 +11°C° 0 mm 1 mps 741 mmHg 53%
    07:00 +11°C° 0 mm 1 mps 741 mmHg 52%
    08:00 +13°C° 0 mm 1 mps 741 mmHg 47%
    09:00 +15°C° 0 mm 2 mps 741 mmHg 42%
    10:00 +17°C° 0 mm 2 mps 741 mmHg 37%
    11:00 +18°C° 0 mm 2 mps 740 mmHg 38%
    12:00 +18°C° 0 mm 3 mps 740 mmHg 39%
    13:00 +19°C° 0 mm 3 mps 739 mmHg 40%
    14:00 +18°C° 0 mm 3 mps 739 mmHg 43%
    15:00 +18°C° 0 mm 3 mps 739 mmHg 46%
    16:00 +17°C° 0 mm 3 mps 738 mmHg 49%
    17:00 +14°C° 0 mm 4 mps 738 mmHg 52%
    18:00 +13°C° 0 mm 4 mps 738 mmHg 55%
    19:00 +11°C° 0 mm 4 mps 738 mmHg 58%
    20:00 +10°C° 0 mm 4 mps 739 mmHg 63%
    21:00 +9°C° 0 mm 3 mps 739 mmHg 69%
    22:00 +9°C° 0 mm 3 mps 739 mmHg 75%
    23:00 +8°C° 0 mm 3 mps 740 mmHg 73%

    Day after tomorrow, 26 March, Tuesday

    Time Temperature Precipitation Wind Pressure Humidity
    00:00 +8°C° 0 mm 3 mps 740 mmHg 71%
    01:00 +8°C° 0 mm 3 mps 741 mmHg 69%
    02:00 +8°C° 0 mm 3 mps 741 mmHg 68%
    03:00 +8°C° 0 mm 3 mps 741 mmHg 68%
    04:00 +7°C° 0 mm 2 mps 742 mmHg 67%
    05:00 +7°C° 0 mm 3 mps 742 mmHg 67%
    06:00 +6°C° 0 mm 4 mps 743 mmHg 67%
    07:00 +6°C° 0 mm 5 mps 744 mmHg 67%
    08:00 +7°C° 0 mm 5 mps 744 mmHg 61%
    09:00 +7°C° 0 mm 6 mps 745 mmHg 54%
    10:00 +8°C° 0 mm 6 mps 745 mmHg 48%
    11:00 +9°C° 0 mm 6 mps 745 mmHg 45%
    12:00 +10°C° 0 mm 6 mps 745 mmHg 42%
    13:00 +10°C° 0 mm 6 mps 745 mmHg 40%
    14:00 +10°C° 0 mm 6 mps 745 mmHg 41%
    15:00 +10°C° 0 mm 6 mps 745 mmHg 42%
    16:00 +10°C° 0 mm 6 mps 745 mmHg 43%
    17:00 +9°C° 0 mm 5 mps 746 mmHg 48%
    18:00 +7°C° 0 mm 4 mps 746 mmHg 52%
    19:00 +6°C° 0 mm 4 mps 747 mmHg 57%
    20:00 +5°C° 0 mm 3 mps 747 mmHg 59%
    21:00 +4°C° 0 mm 3 mps 747 mmHg 61%
    22:00 +4°C° 0 mm 2 mps 748 mmHg 64%
    23:00 +4°C° 0 mm 2 mps 748 mmHg 64%

    27 March, Wednesday

    Time Temperature Precipitation Wind Pressure Humidity
    00:00 +3°C° 0 mm 2 mps 748 mmHg 64%
    01:00 +4°C° 0 mm 1 mps 748 mmHg 65%
    02:00 +3°C° 0 mm 1 mps 748 mmHg 66%
    03:00 +3°C° 0 mm 1 mps 748 mmHg 67%
    04:00 +3°C° 0 mm 1 mps 748 mmHg 68%
    05:00 +4°C° 0 mm 1 mps 749 mmHg 66%
    06:00 +4°C° 0 mm 1 mps 749 mmHg 65%
    07:00 +5°C° 0 mm 1 mps 749 mmHg 63%
    08:00 +7°C° 0 mm 1 mps 749 mmHg 53%
    09:00 +9°C° 0 mm 2 mps 750 mmHg 44%
    10:00 +12°C° 0 mm 2 mps 750 mmHg 35%
    11:00 +12°C° 0 mm 3 mps 750 mmHg 32%
    12:00 +13°C° 0 mm 3 mps 750 mmHg 29%
    13:00 +13°C° 0 mm 3 mps 749 mmHg 25%
    14:00 +13°C° 0 mm 3 mps 749 mmHg 28%
    15:00 +13°C° 0 mm 4 mps 749 mmHg 31%
    16:00 +12°C° 0 mm 4 mps 749 mmHg 34%
    17:00 +10°C° 0 mm 4 mps 749 mmHg 41%
    18:00 +8°C° 0 mm 4 mps 749 mmHg 49%
    19:00 +6°C° 0 mm 4 mps 750 mmHg 56%
    20:00 +5°C° 0 mm 3 mps 750 mmHg 56%
    21:00 +6°C° 0 mm 2 mps 750 mmHg 55%
    22:00 +5°C° 0 mm 2 mps 750 mmHg 54%
    23:00 +6°C° 0 mm 1 mps 751 mmHg 56%

    28 March, Thursday

    Time Temperature Precipitation Wind Pressure Humidity
    00:00 +5°C° 0 mm 1 mps 751 mmHg 58%
    01:00 +5°C° 0 mm 1 mps 751 mmHg 60%
    02:00 +5°C° 0 mm 1 mps 751 mmHg 63%
    03:00 +5°C° 0 mm 1 mps 751 mmHg 66%
    04:00 +5°C° 0 mm 1 mps 751 mmHg 69%
    05:00 +6°C° 0 mm 1 mps 752 mmHg 69%
    06:00 +7°C° 0 mm 1 mps 752 mmHg 69%
    07:00 +6°C° 0 mm 0 mps 752 mmHg 69%
    08:00 +9°C° 0 mm 1 mps 753 mmHg 63%
    09:00 +10°C° 0 mm 1 mps 753 mmHg 58%
    10:00 +12°C° 0 mm 1 mps 753 mmHg 52%
    11:00 +13°C° 0 mm 1 mps 753 mmHg 51%
    12:00 +13°C° 0 mm 1 mps 753 mmHg 49%
    13:00 +14°C° 0 mm 1 mps 752 mmHg 47%
    14:00 +14°C° 0.2 mm 2 mps 752 mmHg 49%
    15:00 +14°C° 0.2 mm 2 mps 752 mmHg 50%
    16:00 +13°C° 0.2 mm 2 mps 751 mmHg 52%
    17:00 +12°C° 0.1 mm 2 mps 752 mmHg 57%
    18:00 +11°C° 0.1 mm 1 mps 752 mmHg 62%
    19:00 +10°C° 0.1 mm 1 mps 752 mmHg 66%
    20:00 +9°C° 0 mm 1 mps 752 mmHg 68%
    21:00 +8°C° 0 mm 1 mps 752 mmHg 69%
    22:00 +8°C° 0 mm 1 mps 753 mmHg 70%
    23:00 +7°C° 0 mm 1 mps 753 mmHg 72%

    29 March, Friday

    Time Temperature Precipitation Wind Pressure Humidity
    00:00 +7°C° 0 mm 1 mps 753 mmHg 73%
    01:00 +6°C° 0 mm 1 mps 753 mmHg 74%
    02:00 +6°C° 0 mm 1 mps 753 mmHg 75%
    03:00 +6°C° 0 mm 1 mps 753 mmHg 75%
    04:00 +5°C° 0 mm 1 mps 753 mmHg 75%
    05:00 +6°C° 0 mm 1 mps 753 mmHg 72%
    06:00 +7°C° 0 mm 1 mps 753 mmHg 69%
    07:00 +7°C° 0 mm 1 mps 753 mmHg 66%
    08:00 +9°C° 0 mm 1 mps 753 mmHg 59%
    09:00 +10°C° 0 mm 1 mps 753 mmHg 53%
    10:00 +12°C° 0 mm 2 mps 753 mmHg 47%
    11:00 +13°C° 0 mm 2 mps 752 mmHg 45%
    12:00 +13°C° 0 mm 2 mps 752 mmHg 43%
    13:00 +14°C° 0 mm 2 mps 751 mmHg 42%
    14:00 +14°C° 0 mm 2 mps 751 mmHg 42%
    15:00 +13°C° 0 mm 3 mps 751 mmHg 42%
    16:00 +13°C° 0 mm 3 mps 750 mmHg 42%
    17:00 +12°C° 0 mm 3 mps 750 mmHg 48%
    18:00 +10°C° 0 mm 2 mps 750 mmHg 54%
    19:00 +8°C° 0 mm 2 mps 750 mmHg 60%
    20:00 +8°C° 0 mm 2 mps 750 mmHg 62%
    21:00 +7°C° 0 mm 2 mps 750 mmHg 64%
    22:00 +7°C° 0 mm 1 mps 750 mmHg 66%
    23:00 +7°C° 0 mm 1 mps 750 mmHg 67%
    Show more